OpenBCM V1.13 (Linux)

Packet Radio Mailbox

DB0FHN

[JN59NK Nuernberg]

 Login: GUEST





  
I6KZR  > KEPLER   11.02.03 22:41l 316 Lines 15752 Bytes #999 (0) @ WW
BID : 23178_IK6WID
Read: DB0FHN GUEST
Subj: 2L Keplerian Elements #042
Path: DB0FHN<DB0RGB<DB0FSG<I4UKI<I6ZLO<IK6WID
Sent: 030211/2013Z @:IK6WID.#AP.IMAR.ITA.EU #:23178 [MONTE URANO]  FBB7.00i
From: I6KZR@IK6WID.#AP.IMAR.ITA.EU
To  : KEPLER@WW

OSCAR 7
1 07530U 74089B   03040.51393053 -.00000029  00000-0  10000-3 0  1481
2 07530 101.7633  88.3849 0012311  95.5087 264.7391 12.53564306292055
GOES 2
1 10061U 77048A   03041.64344854 -.00000146  00000-0  00000+0 0   846
2 10061  14.1321  13.4869 0012973 199.7553 160.2330  0.99401033 38751
GOES 3
1 10953U 78062A   03040.95900629 -.00000090  00000-0  00000+0 0  9199
2 10953  13.4058  17.2959 0005282 341.3833  18.6320  1.00278969 43410
GOES 6
1 14050U 83041A   03040.07554305  .00000050  00000-0  10000-3 0  4211
2 14050  10.3882  35.5600 0003554 347.4720  12.5737  1.00299948130547
OSCAR 10
1 14129U 83058B   03041.63642645  .00000117  00000-0  10000-3 0  9167
2 14129  25.9157 165.6251 6028355 326.7167   6.8087  2.05866882119909
OSCAR 11 (UoSAT 2)
1 14781U 84021B   03041.55490850  .00001539  00000-0  22078-3 0   676
2 14781  98.1164  15.4168 0008248 233.7080 126.3369 14.77969508 15059
NOAA 10
1 16969U 86073A   03042.04619591  .00000155  00000-0  81629-4 0  6571
2 16969  98.7286  36.1718 0013333 107.4972 252.7666 14.27060558852830
GOES 7
1 17561U 87022A   03041.23222589  .00000058  00000-0  10000-3 0  8479
2 17561   7.5860  55.5936 0005361 259.2779  90.4641  1.00251022 41650
=COSMOS 1861
1 18129U 87054A   03039.81633481  .00000062  00000-0  51143-4 0  1981
2 18129  82.9259 153.7691 0010130 254.9160 105.0873 13.72699664783175
EUTELSAT 1-F4 (ECS 4)
1 18351U 87078B   03039.82443930 -.00000215  00000-0  00000+0 0   388
2 18351   7.1778  58.7234 0006875 200.0416 160.0826  0.98690377 42589
NOAA 11
1 19531U 88089A   03042.01392654  .00000192  00000-0  12315-3 0  4959
2 19531  98.9020 123.4211 0011183 221.3093 138.7235 14.14533962741736
ASTRA 1A
1 19688U 88109B   03040.86925594  .00000044  00000-0  10000-3 0  5711
2 19688   1.3563  94.8238 0004383 213.9848 148.8274  1.00273129 32115
OSCAR 14 (UOSAT 3)
1 20437U 90005B   03041.17943944  .00000137  00000-0  67208-4 0  1618
2 20437  98.2741  85.1934 0009869 225.5650 134.4725 14.31234820681296
OSCAR 15 (UOSAT 4)
1 20438U 90005C   03038.11465241  .00000105  00000-0  56327-4 0  7743
2 20438  98.2485  71.4458 0009010 248.0097 112.0128 14.30194732680524
OSCAR 16 (PACSAT)
1 20439U 90005D   03040.21713886  .00000190  00000-0  87201-4 0  8491
2 20439  98.3188  95.9060 0010158 235.0807 124.9422 14.31468157681195
OSCAR 17 (DOVE)
1 20440U 90005E   03041.74534419  .00000187  00000-0  85652-4 0  7263
2 20440  98.3380 101.2451 0010197 229.5479 130.4809 14.31746200681483
OSCAR 18 (WEBERSAT)
1 20441U 90005F   03042.22541613  .00000171  00000-0  79778-4 0    91
2 20441  98.3346 100.9216 0010919 227.7416 132.2841 14.31550620681535
OSCAR 19 (LUSAT)
1 20442U 90005G   03041.71546943  .00000182  00000-0  83753-4 0  9602
2 20442  98.3479 103.4413 0011083 230.7880 129.2320 14.31713289681510
JAS 1B (FUJI 2)
1 20480U 90013C   03039.95711336 -.00000023  00000-0  19522-4 0  4610
2 20480  99.0443   4.5076 0540812  25.6387 337.0501 12.83329359609287
HST
1 20580U 90037B   03041.36427012  .00002781  00000-0  21793-3 0  3220
2 20580  28.4678  91.3701 0004218 179.9886 287.1780 14.97783309501400
EUTELSAT 2-F1
1 20777U 90079B   03042.63184869  .00000000  00000-0  10000-3 0   289
2 20777   3.4849  84.6308 0000767 316.5613  43.5275  1.00267887 26033
FENGYUN 1B
1 20788U 90081A   03042.39783717 -.00000174  00000-0 -84936-4 0  8792
2 20788  99.0265  24.6494 0014978 249.9390 110.0168 14.02133810636535
EUTELSAT 2-F2
1 21056U 91003B   03042.05665510  .00000129  00000-0  10000-3 0  6177
2 21056   2.7130  88.0089 0003104 262.0966 219.4311  1.00275878 31802
INFORMATOR 1
1 21087U 91006A   03039.87990461  .00000065  00000-0  52112-4 0  5973
2 21087  82.9433 324.5811 0033906 279.0745  80.6573 13.74925208603557
COSMOS 2123
1 21089U 91007A   03040.87750754  .00000064  00000-0  51838-4 0  4890
2 21089  82.9227 187.8220 0028264 313.0251  46.8536 13.74403191602594
ASTRA 1B
1 21139U 91015A   03041.00000000  .00000129  00000-0  10000-3 0  1606
2 21139   0.0122 319.8851 0002995  65.1991 133.7503  1.00273184 32108
METEOSAT 5 (MOP 2)
1 21140U 91015B   03040.92294638  .00000028  00000-0  10000-3 0  7121
2 21140   5.6097  70.0061 0002047 146.6131 318.0024  1.00271995 45962
NOAA 12
1 21263U 91032A   03042.04126976  .00000332  00000-0  15995-3 0  9645
2 21263  98.6251  31.7959 0013686  45.7430 314.4870 14.25075045610140
OSCAR 22 (UoSAT 5)
1 21575U 91050B   03041.85996060  .00000331  00000-0  12011-3 0  7225
2 21575  98.1402  34.3706 0007716 149.2413 210.9229 14.39148158607174
METEOR 3-5
1 21655U 91056A   03041.54524583  .00000051  00000-0  10000-3 0  4988
2 21655  82.5543  44.5280 0012415 215.8451 144.1839 13.16980377552423
UARS
1 21701U 91063B   03041.44759780  .00000878  00000-0  83881-4 0  8211
2 21701  56.9808  64.9225 0004807 113.5004 246.6550 15.02840232624490
EUTELSAT 2-F3
1 21803U 91083A   03041.98864584  .00000137  00000-0  10000-3 0  5211
2 21803   2.5793  89.1993 0002618 266.0424 162.7814  1.00276295 36923
INMARSAT 2-F3
1 21814U 91084B   03040.61165547  .00000120  00000-0  10000-3 0  6141
2 21814   1.7281  57.9063 0002567 267.2710 252.2641  1.00274458 40807
INMARSAT 2-F4
1 21940U 92021B   03033.80414906 -.00000361  00000-0  10000-3 0  5688
2 21940   2.3665  19.1794 0001463 307.8659 203.9708  1.00267475 39523
EUTELSAT 2-F4
1 22028U 92041B   03041.99492478 -.00000091  00000-0  10000-3 0  3292
2 22028   1.6976  92.6590 0006084 236.1086 157.7312  1.00271999 31705
OSCAR 23 (KITSAT 1)
1 22077U 92052B   03040.23840020 -.00000037  00000-0  10000-3 0  1539
2 22077  66.0868 145.2674 0015448 276.7072  83.2191 12.86408059493100
ASTRA 1C
1 22653U 93031A   03041.00000000  .00000129  00000-0  10000-3 0  7862
2 22653   0.0122 319.8851 0002995  65.1991 133.7186  1.00273184 30802
METEOR 2-21
1 22782U 93055A   03041.43482418  .00000145  00000-0  11767-3 0  5143
2 22782  82.5465 221.3441 0022740  12.4685 347.7051 13.83532033476961
KITSAT B
1 22825U 93061C   03041.91006224  .00000150  00000-0  75688-4 0  4832
2 22825  98.2756  71.9965 0007649 285.9715  74.0626 14.28940068488780
POSAT 1
1 22826U 93061D   03041.17140771  .00000157  00000-0  77975-4 0  3058
2 22826  98.2759  72.4073 0008381 289.0360  70.9911 14.29162487488723
ITAMSAT
1 22828U 93061F   03041.50370842  .00000137  00000-0  69750-4 0  4221
2 22828  98.2731  72.9873 0009101 263.3529  96.6625 14.29505159456977
EYESAT A
1 22829U 93061G   03041.65432761  .00000218  00000-0  10094-3 0  4470
2 22829  98.2724  73.7301 0008916 262.0605  97.9566 14.29763875488928
METEOSAT 6
1 22912U 93073B   03041.98342015  .00000074  00000-0  00000+0 0  6759
2 22912   2.6574  82.5051 0000882 234.1423 187.7120  1.00280377 32223
GOES 8
1 23051U 94022A   03041.48580315 -.00000240  00000-0  00000+0 0  5992
2 23051   0.2775 103.3427 0000793 292.0868 204.6219  1.00279841 39725
ASTRA 1D
1 23331U 94070A   03042.01107640  .00000149  00000-0  00000+0 0  8149
2 23331   0.0641 227.0953 0003407 116.2764 185.4062  1.00272529 30797
RADIO ROSTO
1 23439U 94085A   03038.20708573 -.00000034  00000-0  24732-3 0  6809
2 23439  64.8156  59.8551 0147092 117.4218 244.1751 11.27547676334317
NOAA 14
1 23455U 94089A   03042.04061158  .00000118  00000-0  87760-4 0  5182
2 23455  99.1877  60.4107 0008614 249.7480 110.2769 14.13293770418414
HIMAWARI 5 (GMS 5)
1 23522U 95011B   03042.45141903  .00000000  00000-0  10000-3 0   946
2 23522   1.7513  83.3583 0001732  64.8514 295.3229  1.00277318 28825
HOT BIRD 1
1 23537U 95016B   03013.80550721  .00000107  00000-0  10000-3 0  5332
2 23537   0.0070 236.2796 0008090  86.9786  92.5958  1.00275871 28611
GOES 9
1 23581U 95025A   03038.51389009  .00000137  00000-0  00000+0 0  5063
2 23581   0.2984 277.9200 0012483 254.1862   2.0839  1.00052947 28254
INMARSAT 3-F1
1 23839U 96020A   03041.71371324  .00000026  00000-0  00000+0 0  8657
2 23839   0.0579 346.1748 0005336 355.2221 119.7649  1.00272958 25130
ASTRA 1F
1 23842U 96021A   03041.00000000  .00000130  00000-0  10000-3 0  5595
2 23842   0.0122 319.8851 0002995  65.1991 133.7951  1.00273184 25032
JAS 2
1 24278U 96046B   03041.48012569  .00000045  00000-0  84099-4 0  5596
2 24278  98.5347 193.7971 0349943 237.4601 119.2284 13.52871583320211
UNAMSAT
1 24305U 96052B   03040.74603033  .00000205  00000-0  20364-3 0  6610
2 24305  82.9359 269.3100 0028629 226.2414 133.6361 13.73450989322279
INMARSAT 3-F2
1 24307U 96053A   03038.02787617 -.00000120  00000-0  00000+0 0   805
2 24307   0.0630  35.8581 0006606 335.3144 120.0042  1.00271971 23505
HOT BIRD 2
1 24665U 96067A   03022.98977813  .00000000  00000-0  10000-3 0  3404
2 24665   0.0347 162.8644 0004202 151.1719 177.1880  1.00271548 22995
INMARSAT 3-F3
1 24674U 96070A   03042.03705959  .00000000  00000-0  10000-3 0  9862
2 24674   0.0466 312.9201 0004929   8.2124  11.0119  1.00271985 22516
GOES 10
1 24786U 97019A   03036.66923413  .00000082  00000-0  00000+0 0  5343
2 24786   0.1055 108.1749 0003144 218.8964 275.0212  1.00287729 21200
INMARSAT 3-F4
1 24819U 97027A   03042.01242116 -.00000276  00000-0  10000-3 0  8792
2 24819   0.0718 292.5295 0004025  46.2358 112.3808  1.00272039 20936
FENGYUN 2A
1 24834U 97029A   03041.81494463 -.00000183  00000-0  00000+0 0  9559
2 24834   2.5527  88.5460 0001551 207.2159 223.4386  1.00284291 20763
HOT BIRD 3
1 24931U 97049A   03023.22766377  .00000000  00000-0  10000-3 0  4210
2 24931   0.0604 227.5595 0010036  81.3762 268.1866  1.00274291 19804
METEOSAT 7
1 24932U 97049B   03040.02185186  .00000008  00000-0  00000+0 0  2447
2 24932   0.1944  60.0395 0001114 262.1122 184.6681  1.00277589 19920
ASTRA 1G
1 25071U 97076A   03041.00000000  .00000129  00000-0  10000-3 0  3903
2 25071   0.0122 319.8851 0002995  65.1991 133.7581  1.00273184 19052
